timestamp,wind_dir_avg,wind_spd_avg,wind_spd_max_dir,wind_spd_gust,battery_voltage,lat,long
2021-05-24 00:04:00+00:00,270.0,2.0,268.0,2.34,12.57,47.59359,-54.27349
2021-05-24 00:14:01+00:00,256.0,1.09,262.0,1.36,12.57,47.59359,-54.27349
2021-05-24 00:24:01+00:00,341.0,2.09,339.0,2.24,12.57,47.59359,-54.27349
2021-05-24 00:34:01+00:00,22.0,9.96,23.0,11.37,12.57,47.59359,-54.27349
2021-05-24 00:44:01+00:00,17.0,10.91,17.0,12.59,12.57,47.59359,-54.27349
2021-05-24 00:54:01+00:00,18.0,11.49,18.0,13.27,12.57,47.59359,-54.27349
2021-05-24 01:04:01+00:00,21.0,11.34,25.0,12.7,12.57,47.59359,-54.27349
2021-05-24 01:14:01+00:00,24.0,10.23,26.0,11.86,12.57,47.59359,-54.27349
2021-05-24 01:24:01+00:00,28.0,10.37,30.0,11.74,12.57,47.59359,-54.27349
2021-05-24 01:34:01+00:00,24.0,9.96,28.0,11.89,12.57,47.59359,-54.27349
2021-05-24 01:44:01+00:00,25.0,11.03,25.0,12.43,12.57,47.59359,-54.27349
2021-05-24 01:54:01+00:00,26.0,10.72,30.0,11.9,12.57,47.59359,-54.27349
2021-05-24 02:04:01+00:00,24.0,11.21,24.0,13.14,12.57,47.59359,-54.27349
2021-05-24 02:14:00+00:00,24.0,12.05,23.0,13.79,12.49,47.59359,-54.27349
2021-05-24 02:24:00+00:00,13.0,11.99,17.0,13.43,12.49,47.59359,-54.27349
2021-05-24 02:34:00+00:00,18.0,13.02,25.0,15.1,12.49,47.59359,-54.27349
2021-05-24 02:44:00+00:00,23.0,13.14,25.0,14.89,12.49,47.59359,-54.27349
2021-05-24 02:54:00+00:00,20.0,11.97,19.0,13.92,12.49,47.59359,-54.27349
2021-05-24 03:04:00+00:00,22.0,10.7,21.0,12.41,12.49,47.59359,-54.27349
2021-05-24 03:14:01+00:00,24.0,12.07,21.0,14.83,12.49,47.59359,-54.27349
2021-05-24 03:24:01+00:00,28.0,12.38,31.0,13.72,12.49,47.59359,-54.27349
2021-05-24 03:34:01+00:00,25.0,12.15,28.0,14.99,12.49,47.59359,-54.27349
2021-05-24 03:44:01+00:00,24.0,11.47,25.0,13.11,12.49,47.59359,-54.27349
2021-05-24 03:54:01+00:00,20.0,10.1,21.0,11.1,12.49,47.59359,-54.27349
2021-05-24 04:04:01+00:00,18.0,10.75,17.0,12.3,12.49,47.59359,-54.27349
2021-05-24 04:14:01+00:00,21.0,10.25,24.0,11.89,12.49,47.59359,-54.27349
2021-05-24 04:24:01+00:00,23.0,10.14,24.0,11.33,12.49,47.59359,-54.27349
2021-05-24 04:34:01+00:00,25.0,11.36,16.0,12.67,12.49,47.59359,-54.27349
2021-05-24 04:44:01+00:00,23.0,11.25,33.0,13.69,12.49,47.59359,-54.27349
2021-05-24 04:54:01+00:00,9.0,10.96,15.0,14.56,12.49,47.59359,-54.27349
2021-05-24 05:04:01+00:00,19.0,11.15,18.0,12.77,12.49,47.59359,-54.27349
2021-05-24 05:14:00+00:00,20.0,10.63,34.0,12.33,12.41,47.59359,-54.27349
2021-05-24 05:24:00+00:00,19.0,10.06,26.0,12.32,12.41,47.59359,-54.27349
2021-05-24 05:34:00+00:00,17.0,10.68,10.0,13.01,12.41,47.59359,-54.27349
2021-05-24 05:44:00+00:00,15.0,10.17,7.0,12.09,12.41,47.59359,-54.27349
2021-05-24 05:54:00+00:00,17.0,12.73,18.0,14.63,12.41,47.59359,-54.27349
2021-05-24 06:04:00+00:00,19.0,11.32,15.0,13.22,12.41,47.59359,-54.27349
2021-05-24 06:14:00+00:00,14.0,13.11,17.0,14.75,12.41,47.59359,-54.27349
2021-05-24 06:24:00+00:00,12.0,12.94,14.0,14.84,12.41,47.59359,-54.27349
2021-05-24 06:34:00+00:00,12.0,11.19,19.0,13.99,12.41,47.59359,-54.27349
2021-05-24 06:44:00+00:00,16.0,11.25,18.0,15.17,12.41,47.59359,-54.27349
2021-05-24 06:54:00+00:00,13.0,12.71,18.0,14.3,12.41,47.59359,-54.27349
2021-05-24 07:04:00+00:00,16.0,13.88,17.0,15.95,12.41,47.59359,-54.27349
2021-05-24 07:14:00+00:00,15.0,12.76,14.0,15.27,12.33,47.59359,-54.27349
2021-05-24 07:24:00+00:00,11.0,12.19,14.0,14.88,12.33,47.59359,-54.27349
2021-05-24 07:34:00+00:00,12.0,12.35,16.0,14.68,12.33,47.59359,-54.27349
2021-05-24 07:44:00+00:00,8.0,10.78,5.0,12.85,12.33,47.59359,-54.27349
2021-05-24 07:54:00+00:00,13.0,11.81,14.0,14.23,12.33,47.59359,-54.27349
2021-05-24 08:04:00+00:00,8.0,12.19,2.0,15.04,12.33,47.59359,-54.27349
2021-05-24 08:14:00+00:00,12.0,13.74,14.0,16.26,12.33,47.59359,-54.27349
2021-05-24 08:24:00+00:00,11.0,12.45,16.0,15.22,12.33,47.59359,-54.27349
2021-05-24 08:34:00+00:00,10.0,13.84,13.0,16.44,12.33,47.59359,-54.27349
2021-05-24 08:44:00+00:00,7.0,12.76,10.0,14.71,12.33,47.59359,-54.27349
2021-05-24 08:54:00+00:00,5.0,15.88,2.0,18.77,12.33,47.59359,-54.27349
2021-05-24 09:04:00+00:00,11.0,13.88,13.0,16.3,12.33,47.59359,-54.27349
2021-05-24 09:14:01+00:00,10.0,12.53,6.0,15.23,12.65,47.59359,-54.27349
2021-05-24 09:24:01+00:00,10.0,12.13,19.0,14.69,12.65,47.59359,-54.27349
2021-05-24 09:34:01+00:00,2.0,12.74,0.0,16.83,12.65,47.59359,-54.27349
2021-05-24 09:44:01+00:00,12.0,11.81,12.0,14.75,12.65,47.59359,-54.27349
2021-05-24 09:54:01+00:00,8.0,11.06,6.0,13.81,12.65,47.59359,-54.27349
2021-05-24 10:04:01+00:00,19.0,12.97,26.0,14.75,12.65,47.59359,-54.27349
2021-05-24 10:14:01+00:00,9.0,11.05,12.0,12.98,13.6,47.59359,-54.27349
2021-05-24 10:24:01+00:00,8.0,13.48,5.0,15.38,13.6,47.59359,-54.27349
2021-05-24 10:34:01+00:00,9.0,13.54,14.0,16.19,13.6,47.59359,-54.27349
2021-05-24 10:44:01+00:00,7.0,12.46,7.0,15.33,13.6,47.59359,-54.27349
2021-05-24 10:54:01+00:00,3.0,15.33,359.0,17.88,13.6,47.59359,-54.27349
2021-05-24 11:04:01+00:00,10.0,12.03,2.0,14.35,13.6,47.59359,-54.27349
2021-05-24 11:14:01+00:00,15.0,14.02,15.0,16.17,13.53,47.59359,-54.27349
2021-05-24 11:24:01+00:00,14.0,14.24,16.0,16.48,13.53,47.59359,-54.27349
2021-05-24 11:34:01+00:00,6.0,12.51,4.0,15.0,13.53,47.59359,-54.27349
2021-05-24 11:44:01+00:00,17.0,15.18,20.0,17.34,13.53,47.59359,-54.27349
2021-05-24 11:54:01+00:00,8.0,10.58,4.0,12.71,13.53,47.59359,-54.27349
2021-05-24 12:04:01+00:00,354.0,14.64,351.0,16.71,13.53,47.59359,-54.27349
2021-05-24 12:14:01+00:00,3.0,12.87,1.0,15.1,13.68,47.59359,-54.27349
2021-05-24 12:24:01+00:00,355.0,13.37,355.0,15.95,13.68,47.59359,-54.27349
2021-05-24 12:34:01+00:00,358.0,14.74,356.0,18.02,13.68,47.59359,-54.27349
2021-05-24 12:44:01+00:00,6.0,13.1,8.0,16.15,13.68,47.59359,-54.27349
2021-05-24 12:54:01+00:00,356.0,15.09,355.0,17.82,13.68,47.59359,-54.27349
2021-05-24 13:04:01+00:00,3.0,15.24,2.0,17.08,13.68,47.59359,-54.27349
2021-05-24 13:14:01+00:00,9.0,12.46,12.0,14.73,13.76,47.59359,-54.27349
2021-05-24 13:24:01+00:00,3.0,12.52,6.0,13.83,13.76,47.59359,-54.27349
2021-05-24 13:34:01+00:00,14.0,11.71,15.0,13.54,13.76,47.59359,-54.27349
2021-05-24 13:44:01+00:00,13.0,11.48,10.0,13.31,13.76,47.59359,-54.27349
2021-05-24 13:54:01+00:00,11.0,11.57,13.0,13.57,13.76,47.59359,-54.27349
2021-05-24 14:04:01+00:00,350.0,11.39,345.0,12.39,13.76,47.59359,-54.27349
2021-05-24 14:14:01+00:00,4.0,12.21,7.0,15.56,14.0,47.59359,-54.27349
2021-05-24 14:24:01+00:00,10.0,11.46,4.0,12.97,14.0,47.59359,-54.27349
2021-05-24 14:34:01+00:00,24.0,10.87,34.0,13.1,14.0,47.59359,-54.27349
2021-05-24 14:44:01+00:00,12.0,11.63,13.0,14.31,14.0,47.59359,-54.27349
2021-05-24 14:54:01+00:00,2.0,12.07,4.0,13.71,14.0,47.59359,-54.27349
2021-05-24 15:04:01+00:00,3.0,11.89,358.0,13.9,14.0,47.59359,-54.27349
2021-05-24 15:14:01+00:00,11.0,11.56,14.0,13.41,14.08,47.59359,-54.27349
2021-05-24 15:24:01+00:00,3.0,10.89,3.0,12.24,14.08,47.59359,-54.27349
2021-05-24 15:34:01+00:00,5.0,12.07,3.0,14.09,14.08,47.59359,-54.27349
2021-05-24 15:44:01+00:00,2.0,14.71,3.0,16.16,14.08,47.59359,-54.27349
2021-05-24 15:54:01+00:00,8.0,11.77,13.0,13.98,14.08,47.59359,-54.27349
2021-05-24 16:04:01+00:00,6.0,10.9,6.0,12.91,14.08,47.59359,-54.27349
2021-05-24 16:14:01+00:00,4.0,12.66,4.0,14.62,13.68,47.59359,-54.27349
2021-05-24 16:24:01+00:00,346.0,9.31,344.0,10.13,13.68,47.59359,-54.27349
2021-05-24 16:34:01+00:00,4.0,11.47,2.0,12.66,13.68,47.59359,-54.27349
2021-05-24 16:44:01+00:00,1.0,9.49,4.0,11.27,13.68,47.59359,-54.27349
2021-05-24 16:54:01+00:00,2.0,11.32,2.0,13.05,13.68,47.59359,-54.27349
2021-05-24 17:04:01+00:00,353.0,9.71,355.0,11.36,13.68,47.59359,-54.27349
2021-05-24 17:14:01+00:00,349.0,8.2,347.0,9.63,13.84,47.59359,-54.27349
2021-05-24 17:24:01+00:00,344.0,12.03,341.0,13.33,13.84,47.59359,-54.27349
2021-05-24 17:34:01+00:00,1.0,9.83,4.0,11.39,13.84,47.59359,-54.27349
2021-05-24 17:44:01+00:00,355.0,8.48,347.0,9.6,13.84,47.59359,-54.27349
2021-05-24 17:54:01+00:00,351.0,11.05,354.0,13.13,13.84,47.59359,-54.27349
2021-05-24 18:04:01+00:00,348.0,10.71,349.0,12.74,13.84,47.59359,-54.27349
2021-05-24 18:14:01+00:00,352.0,10.67,355.0,12.29,13.84,47.59359,-54.27349
2021-05-24 18:24:01+00:00,359.0,9.86,357.0,13.48,13.84,47.59359,-54.27349
2021-05-24 18:34:01+00:00,20.0,8.21,21.0,9.6,13.84,47.59359,-54.27349
2021-05-24 18:44:01+00:00,5.0,9.42,2.0,10.57,13.84,47.59359,-54.27349
2021-05-24 18:54:01+00:00,349.0,10.78,351.0,12.22,13.84,47.59359,-54.27349
2021-05-24 19:04:01+00:00,338.0,8.49,346.0,9.46,13.84,47.59359,-54.27349
2021-05-24 19:14:01+00:00,345.0,10.0,349.0,11.88,13.76,47.59359,-54.27349
2021-05-24 19:24:01+00:00,346.0,9.47,347.0,10.22,13.76,47.59359,-54.27349
2021-05-24 19:34:01+00:00,353.0,10.17,354.0,11.47,13.76,47.59359,-54.27349
2021-05-24 19:44:01+00:00,353.0,10.42,356.0,12.53,13.76,47.59359,-54.27349
2021-05-24 19:54:01+00:00,353.0,8.56,353.0,10.37,13.76,47.59359,-54.27349
2021-05-24 20:04:01+00:00,7.0,8.43,5.0,9.84,13.76,47.59359,-54.27349
2021-05-24 20:14:01+00:00,13.0,7.37,11.0,8.33,13.76,47.59359,-54.27349
2021-05-24 20:24:01+00:00,5.0,7.96,3.0,9.08,13.76,47.59359,-54.27349
2021-05-24 20:34:01+00:00,0.0,8.06,357.0,8.97,13.76,47.59359,-54.27349
2021-05-24 20:44:01+00:00,1.0,8.01,0.0,8.85,13.76,47.59359,-54.27349
2021-05-24 20:54:01+00:00,358.0,7.79,359.0,8.64,13.76,47.59359,-54.27349
2021-05-24 21:04:01+00:00,355.0,7.03,356.0,7.65,13.76,47.59359,-54.27349
2021-05-24 21:14:01+00:00,12.0,9.19,12.0,10.17,13.76,47.59359,-54.27349
2021-05-24 21:24:01+00:00,357.0,6.68,1.0,7.83,13.76,47.59359,-54.27349
2021-05-24 21:34:01+00:00,357.0,6.65,353.0,7.64,13.76,47.59359,-54.27349
2021-05-24 21:44:01+00:00,6.0,6.22,14.0,7.12,13.76,47.59359,-54.27349
2021-05-24 21:54:01+00:00,11.0,5.97,13.0,6.84,13.76,47.59359,-54.27349
2021-05-24 22:04:01+00:00,358.0,5.05,359.0,5.78,13.76,47.59359,-54.27349
2021-05-24 22:14:01+00:00,353.0,3.82,4.0,5.17,13.68,47.59359,-54.27349
2021-05-24 22:24:01+00:00,342.0,3.41,345.0,4.37,13.68,47.59359,-54.27349
2021-05-24 22:34:01+00:00,1.0,5.28,4.0,5.74,13.68,47.59359,-54.27349
2021-05-24 22:44:01+00:00,2.0,4.59,2.0,5.05,13.68,47.59359,-54.27349
2021-05-24 22:54:01+00:00,357.0,4.04,354.0,4.81,13.68,47.59359,-54.27349
2021-05-24 23:04:01+00:00,3.0,4.66,2.0,5.35,13.68,47.59359,-54.27349
2021-05-24 23:14:01+00:00,10.0,3.49,18.0,4.28,13.29,47.59359,-54.27349
2021-05-24 23:24:01+00:00,25.0,2.19,15.0,2.7,13.29,47.59359,-54.27349
2021-05-24 23:34:01+00:00,359.0,3.12,358.0,4.03,13.29,47.59359,-54.27349
2021-05-24 23:44:01+00:00,9.0,1.97,16.0,2.38,13.29,47.59359,-54.27349
2021-05-24 23:54:01+00:00,322.0,1.25,324.0,1.55,13.29,47.59359,-54.27349
